Preview of NWS' New Version of Forecast
This preview is not operational and should not be used for support decisions.
Latest weather observations around

Whitefield - Mount Washington Regional Airport (KHIE)

Using International System of Units (Switch to English Units)
Date/ Time (EDT) Wind (kph) Vis. (km) Weather Sky Cond. Temp (°C) Rel. Humidity Wind Chill (°C) Heat Index (°C) Pressure Precip. (cm)
Air Dwpt 6 hour Altimeter (hPa) Sea level (hPa) 1 hr 3 hr 6 hr
Max Min
Apr 21 13:52 5 16.09 Light Rain FEW034 SCT080 OVC100 18 8     50%     1015.9 1015.6 0   0
Apr 21 12:52 SSW 11 16.09 Mostly Cloudy FEW080 SCT090 BKN110 19 7     45%     1015.9 1015.8      
Apr 21 11:52 S 13 16.09 Partly Cloudy SCT110 18 8     50%     1015.9 1015.8 0    
Apr 21 10:52 NE 11 16.09 Light Rain BKN090 OVC110 17 10     65%     1015.9 1015.7 0 0  
Apr 21 09:52 WNW 5 16.09 Cloudy OVC090 15 11     75%     1016.3 1016.3      
Apr 21 08:52 WNW 9 16.09 Cloudy OVC090 14 11     78%     1015.6 1015.6      
Apr 21 07:52 Calm 16.09 Mostly Cloudy BKN100 13 11     87%     1014.9 1014.9 0   0
Apr 21 06:52 Calm 16.09 Cloudy OVC100 12 10     89%     1014.2 1014.5      
Apr 21 05:52 8 16.09 Cloudy OVC090 12 11     90%     1013.2 1013.4      
Notice The following observation data may not be complete
Apr 21 04:52 S 9 16.09 Mostly Cloudy BKN075   11      %     1012.9 1012.8 0 0  
Apr 21 03:52 W 8 16.09 Light Rain SCT049 BKN070 OVC090 14 11     83%     1013.2 1013.2 0    
Apr 21 02:52 8 16.09 Light Rain BKN030 BKN036 OVC050 17 12     72%     1012.5 1012.3 0    
Apr 21 01:52   16.09 Mostly Clear FEW036 18 12     68%     1011.5 1011.3     0
Apr 21 00:52 SE 22 16.09 Mostly Clear FEW039 19 12     63%     1011.9 1011.4      
Apr 20 23:52 SE 26 16.09 Clear CLR 19 12     61%     1011.5 1011.1      
Apr 20 22:52 SE 26 16.09 Partly Cloudy SCT046 19 13     68%     1011.9 1011.5 0 0  
Apr 20 21:52 WSW 15 16.09 Cloudy BKN037 OVC045 21 13     63%     1011.9 1011.6      
Apr 20 20:52 S 18 16.09 Mostly Cloudy BKN042 BKN050 19 13     68%     1011.2 1010.8      
Apr 20 19:52 NNW 5 16.09 Cloudy BKN041 OVC048 17 14     86%     1011.2 1011     1
Apr 20 18:52 Calm 16.09 Cloudy OVC034 18 15     84%     1010.8 1010.5      
Apr 20 17:52 E 5 16.09 Mostly Cloudy BKN038 BKN090 18 16     87%     1010.5 1010.3 0    
Apr 20 16:52 Calm 16.09 Cloudy BKN033 OVC040 17 15     87%     1010.8 1010.7 0 1  
Apr 20 15:52 Calm 11.27 Light Rain FEW029 OVC035 17 15     87%     1010.8 1010.5 0    
Apr 20 14:52 Calm 9.66 Light Rain and Fog/Mist BKN042 BKN050 OVC075 17 15     87%     1010.8 1010.7 1    
Apr 20 14:20 NNW 5 4.83 Light Rain and Fog/Mist SCT040 OVC060 17 14     86%     1011.5   0    
Apr 20 14:17 Calm 2.01 Light Rain and Fog/Mist BKN040 BKN055 OVC065 17 14     86%     1011.5   0    
Apr 20 14:04 5 1.21 Heavy Rain BKN042 BKN060 OVC075 17 14     84%     1011.9   0    
Apr 20 14:01 5 2.41 Heavy Rain SCT046 BKN060 OVC085 17 14     84%     1011.5   0    
Apr 20 13:52 E 5 6.44 Rain SCT060 OVC080 17 14     84%     1011.2 1011.1 0   0
Apr 20 13:32 9 3.22 Rain FEW065 OVC090 18 14     78%     1010.8   0    
Apr 20 12:52 SSW 9 12.87 Light Rain SCT031 SCT080 OVC100 19 15     76%     1010.8 1010.6 0    
Apr 20 11:52 S 11 16.09 Cloudy FEW034 BKN046 OVC055 21 14     63%     1009.8 1009.7      
Apr 20 10:52 S 15 16.09 Cloudy BKN037 OVC043 22 14     61%   22 1009.5 1009.2      
Apr 20 09:52 S 11 16.09 Mostly Cloudy SCT038 BKN047 BKN060 22 14     61%   22 1008.5 1008      
Apr 20 08:52 SSW 13 16.09 Cloudy FEW036 OVC080 21 14     63%     1007.1 1006.9      
Apr 20 07:52 SW 13 16.09 Cloudy BKN040 BKN055 OVC075 21 14     65%     1006.8 1006.4     0
Apr 20 06:52 8 16.09 Mostly Cloudy BKN039 BKN090 20 14     68%     1005.8 1005.5      
Apr 20 05:52 SW 18 16.09 Cloudy BKN043 BKN090 OVC110 20 14     68%     1004.8 1004.4 0    
Apr 20 04:52 SSW 15 16.09 Light Rain SCT040 BKN049 OVC110 19 14     73%     1004.1 1003.6 0 0  
Apr 20 03:52 SSW 15 16.09 Light Rain FEW042 BKN060 OVC070 19 14     71%     1004.1 1003.8 0    
Apr 20 02:52 SSW 13 16.09 Cloudy FEW030 BKN046 OVC060 19 14     73%     1004.4 1003.9 0    
Apr 20 01:52 5 16.09 Cloudy SCT035 BKN046 OVC060 18 14     76%     1004.8 1004.5 0   0
Apr 20 00:52 Calm 16.09 Cloudy SCT036 BKN048 OVC085 17 14     84%     1005.1 1005      
Apr 19 23:52 Calm 16.09 Cloudy BKN037 OVC046 14 13     93%     1005.8 1005.7 0    
Apr 19 22:52 Calm 14.48 Light Rain OVC065 15 13     90%     1006.8 1006.6 0 0  
Apr 19 21:52 Calm 16.09 Light Rain OVC095 19 13     68%     1006.8 1006.6 0    
Apr 19 20:52 Calm 16.09 Cloudy SCT044 BKN070 OVC110 19 12     61%     1006.1 1006      
Apr 19 19:52 SW 9 16.09 Mostly Cloudy SCT055 SCT090 BKN110 21 12     57%     1006.1 1006.1 0   0
Apr 19 18:52 SSW 13 16.09 Cloudy FEW047 OVC065 21 12     55%     1005.1 1005.4      
Apr 19 17:52 SSW 8 16.09 Cloudy FEW050 OVC070 21 12     55%     1004.8 1005      
Apr 19 16:52 SSW 17 16.09 Cloudy SCT044 OVC055 22 11     51%   21 1004.4 1004.6      
Apr 19 15:52 SW 17 16.09 Cloudy BKN048 OVC055 22 12     53%   21 1004.4 1004.8      
Apr 19 14:52 SW 15 16.09 Mostly Cloudy BKN039 22 12     53%   21 1004.4 1004.6      
Apr 19 13:52 SSW 11 16.09 Mostly Cloudy SCT038 BKN047 BKN065 20 12     59%     1005.1 1005.4      
Apr 19 12:52 9 16.09 Cloudy OVC033 19 11     59%     1005.4 1005.5      
Apr 19 11:52 SSW 13 16.09 Cloudy OVC035 20 11     57%     1005.8 1006      
Apr 19 10:52 E 5 16.09 Mostly Clear FEW037 18 10     58%     1005.8 1005.8      
Apr 19 09:52 Calm 16.09 Clear CLR 16 9     67%     1006.4 1006.8      
Apr 19 08:52 ENE 5 16.09 Clear CLR 12 9     80%     1006.1 1006.3      
Apr 19 07:52 Calm 16.09 Clear CLR 7 5     89%     1006.4 1007      
Apr 19 06:52 Calm 11.27 Clear CLR 3 2     92%     1006.4 1007.3      
Apr 19 06:43 Calm 4.83 Fog/Mist CLR 3 2     92%     1006.8        
Apr 19 06:36 Calm 2.01 Fog/Mist CLR 3 1     89%     1006.4        
Apr 19 06:26 Calm 1.21 Fog/Mist CLR 3 1     89%     1006.8        
Apr 19 06:21 Calm 2.41 Fog/Mist CLR 3 1     89%     1006.8        
Apr 19 05:52 Calm 14.48 Clear CLR 3 2     89%     1006.4 1007.3      
Apr 19 05:19 Calm 4.83 Fog/Mist CLR 3 2     92%     1006.4        
Apr 19 05:15 Calm 2.82 Fog/Mist CLR 3 2     92%     1006.4        
Apr 19 04:52 Calm 14.48 Mostly Clear FEW002 3 2     92%     1006.1 1006.9      
Apr 19 04:00 Calm 4.83 Fog/Mist BKN001 4 3     93%     1006.4        
Apr 19 03:52 Calm 3.22 Fog/Mist SCT001 4 2     89%     1006.8 1007.3      
Apr 19 03:44 Calm 2.82 Fog/Mist SCT001 4 3     93%     1006.4        
Apr 19 03:32 Calm 3.22 Fog/Mist SCT001 4 3     93%     1006.8        
Apr 19 03:21 Calm 1.61 Fog/Mist VV001 4 3     89%     1006.8        
Apr 19 03:18 Calm 3.22 Fog/Mist FEW001 4 3     93%     1006.4        
Apr 19 02:52 Calm 14.48 Mostly Clear FEW110 4 3     89%     1006.8 1007.4      
Apr 19 02:23 Calm 9.66 Fog/Mist FEW002 BKN110 6 4     89%     1007.1        
Apr 19 02:13 WNW 5 4.02 Fog/Mist FEW002 BKN110 5 3     89% 4   1007.1        
Apr 19 01:52 S 5 6.44 Fog/Mist CLR 5 4     93% 4   1007.1 1007.8     0
Apr 19 01:24 Calm 8.05 Fog/Mist FEW001 SCT120 6 4     89%     1008.1        
Apr 19 00:52 SSE 5 16.09 Mostly Cloudy BKN110 6 4     89% 5   1008.1 1008.8 0    
Apr 18 23:52 Calm 16.09 Light Rain OVC095 7 4     85%     1009.5 1010 0    
Apr 18 22:52 ESE 8 16.09 Cloudy FEW034 BKN090 OVC110 7 4     85% 5     1010.8   0  
Apr 18 21:52 Calm 16.09 Cloudy FEW031 SCT055 OVC100 8 4     76%     1010.2 1011.1 0    
Apr 18 21:17 5 16.09 Cloudy OVC030 9 4     69% 9   1011.2        
Apr 18 21:10 W 8 16.09 Cloudy BKN028 OVC060 10 4     66%     1011.2        
Apr 18 20:52 W 5 16.09 Cloudy SCT030 BKN035 OVC060 10 4     66%     1011.2 1011.9      
Apr 18 19:52 SSW 11 16.09 Cloudy OVC031 10 3     63%       1012.8      
Apr 18 18:52 S 17 16.09 Cloudy BKN034 OVC045 9 2     59% 7   1011.9 1013      
Apr 18 17:52 11 16.09 Cloudy OVC036 9 0     54% 7     1014.4      
Apr 18 16:52 11 16.09 Cloudy OVC040 10 -2     44%       1015.4      
Apr 18 15:52 11 16.09 Cloudy OVC043 10 -6     33%     1015.6 1016.5      
Apr 18 14:52 S 30 16.09 Cloudy OVC047 10 -9     25%       1016.9      
Apr 18 13:52 S 32 16.09 Cloudy and Windy OVC050 10        %     1016.6 1017.8     0
May 15 12:30 NE 8 4.83 Light Rain and Fog/Mist FEW008 BKN015 OVC055 16 15     93%     1008.1   0    
May 15 04:52 Calm 16.09 Clear CLR 7 5     89%     1009.2 1009      
May 14 18:52 WSW 11 16.09 Clear CLR 24 6     31%   23 1009.5 1009.5      
May 14 05:52 Calm 16.09 Clear CLR 1 -1     92%     1014.9 1015.4      
May 12 08:52 5 16.09 Clear   8 -2     48% 8   1022.7 1023.5      
May 12 04:52 Calm 16.09 Clear CLR -2 -4     88%     1022 1022.9      
May 12 01:52 Calm 16.09 Clear CLR -2 -4     85%     1022 1022.8      
Notice The following observation data may not be complete
Jun 12 04:52 Calm 12.87 Clear CLR   13      %     1014.9 1014.6      
Jun 11 14:52 WSW 22 16.09 Clear CLR 31 14     37%   30 1011.2 1010.8      
Jun 11 13:52   16.09 Clear CLR 29 15     43%   29 1011.2 1010.9      
Jun 11 02:52 Calm 16.09 Partly Cloudy SCT100 12 10     89%     1013.6 1013.6      
Notice The following observation data may not be complete
Jun 10 03:16   12.87 Clear CLR          %         0    
Jun 09 07:52 SSE 8 16.09 Cloudy OVC070 12 10     86%     1005.4 1005.2      
Jun 08 22:52 Calm 16.09 Clear CLR 14 11     81%     1010.8 1010.4      
Jun 08 10:52 NNW 5 16.09 Clear CLR 24 10     41%   23 1016.6 1016.3      
Jun 08 03:52 Calm 16.09 Clear CLR 6 4     89%     1016.9 1017      
Jun 08 02:52 Calm 16.09 Clear CLR 6 4     89%     1016.9 1016.9      
Jun 07 20:52 Calm 16.09 Clear CLR 14 11     78%     1015.2 1015.5      
Jun 07 12:52 NW 11 16.09 Clear CLR 22 9     45%   21 1014.6 1014.7      
Jun 07 09:52 Calm 16.09 Partly Cloudy SCT009 14 10     77%     1016.6 1016.9      
Jun 06 12:52 E 13 16.09 Light Rain OVC075 10 6     74% 8   1012.2 1012.6 0    
Jun 05 20:52 Calm 16.09 Cloudy BKN040 BKN055 OVC070 13 8     72%     1012.2 1012.2